contact:dominique.lefevre@mio.osupytheas.fr, maurice.libes@osupytheas.fr, didier.mallarino@osupytheas.fr
Project:EMSO http://www.emso-fr.org/EMSO-France
Depth: 2436.0 m
Title:EMSO Ligure Ouest : Data MII capteur OXYGEN
DateTime,Latitude,Longitude,Optode-Type,Optode_Serial,Oxygen,Saturation_Oxygen,Temperature
DateTime,Latitude,Longitude,Optode-Type,Optode_Serial,µmol.l-1,%,degC
2017-11-09T00:01:19,42.805,6.029,4330,1995,198.506,60.703,13.286
2017-11-09T00:04:19,42.805,6.029,4330,1995,198.512,60.705,13.286
2017-11-09T00:07:19,42.805,6.029,4330,1995,198.550,60.716,13.286
2017-11-09T00:10:19,42.805,6.029,4330,1995,198.534,60.711,13.286
2017-11-09T00:13:19,42.805,6.029,4330,1995,198.495,60.700,13.286
2017-11-09T00:16:19,42.805,6.029,4330,1995,198.548,60.716,13.286
2017-11-09T00:19:19,42.805,6.029,4330,1995,198.473,60.693,13.286
2017-11-09T00:22:19,42.805,6.029,4330,1995,198.474,60.693,13.286
2017-11-09T00:25:19,42.805,6.029,4330,1995,198.490,60.698,13.286
2017-11-09T00:28:19,42.805,6.029,4330,1995,198.510,60.704,13.286
2017-11-09T00:31:19,42.805,6.029,4330,1995,198.568,60.722,13.286
2017-11-09T00:34:19,42.805,6.029,4330,1995,198.471,60.693,13.286
2017-11-09T00:37:19,42.805,6.029,4330,1995,198.477,60.694,13.286
2017-11-09T00:40:19,42.805,6.029,4330,1995,198.502,60.702,13.286
2017-11-09T00:43:19,42.805,6.029,4330,1995,198.523,60.708,13.286
2017-11-09T00:46:19,42.805,6.029,4330,1995,198.519,60.707,13.286
2017-11-09T00:49:19,42.805,6.029,4330,1995,198.489,60.698,13.286
2017-11-09T00:52:19,42.805,6.029,4330,1995,198.540,60.714,13.286
2017-11-09T00:55:19,42.805,6.029,4330,1995,198.508,60.703,13.286
2017-11-09T00:58:19,42.805,6.029,4330,1995,198.501,60.701,13.286
2017-11-09T01:01:19,42.805,6.029,4330,1995,198.495,60.700,13.286
2017-11-09T01:04:19,42.805,6.029,4330,1995,198.477,60.694,13.286
2017-11-09T01:07:19,42.805,6.029,4330,1995,198.437,60.682,13.286
2017-11-09T01:10:19,42.805,6.029,4330,1995,198.485,60.696,13.286
2017-11-09T01:13:19,42.805,6.029,4330,1995,198.435,60.682,13.286
2017-11-09T01:16:19,42.805,6.029,4330,1995,198.503,60.702,13.286
2017-11-09T01:19:19,42.805,6.029,4330,1995,198.454,60.688,13.286
2017-11-09T01:22:19,42.805,6.029,4330,1995,198.409,60.674,13.286
2017-11-09T01:25:19,42.805,6.029,4330,1995,198.403,60.672,13.286
2017-11-09T01:28:19,42.805,6.029,4330,1995,198.466,60.691,13.286
2017-11-09T01:31:19,42.805,6.029,4330,1995,198.416,60.676,13.286
2017-11-09T01:34:19,42.805,6.029,4330,1995,198.399,60.671,13.286
2017-11-09T01:37:19,42.805,6.029,4330,1995,198.435,60.682,13.286
2017-11-09T01:40:19,42.805,6.029,4330,1995,198.465,60.690,13.286
2017-11-09T01:43:19,42.805,6.029,4330,1995,198.477,60.695,13.286
2017-11-09T01:46:19,42.805,6.029,4330,1995,198.486,60.697,13.286
2017-11-09T01:49:19,42.805,6.029,4330,1995,198.418,60.677,13.286
2017-11-09T01:52:19,42.805,6.029,4330,1995,198.367,60.661,13.286
2017-11-09T01:55:19,42.805,6.029,4330,1995,198.495,60.700,13.286
2017-11-09T01:58:19,42.805,6.029,4330,1995,198.429,60.680,13.286
2017-11-09T02:01:19,42.805,6.029,4330,1995,198.357,60.658,13.286
2017-11-09T02:04:19,42.805,6.029,4330,1995,198.334,60.651,13.286
2017-11-09T02:07:19,42.805,6.029,4330,1995,198.353,60.656,13.286
2017-11-09T02:10:19,42.805,6.029,4330,1995,198.319,60.646,13.286
2017-11-09T02:13:19,42.805,6.029,4330,1995,198.240,60.622,13.286
2017-11-09T02:16:19,42.805,6.029,4330,1995,198.233,60.620,13.286
2017-11-09T02:19:19,42.805,6.029,4330,1995,198.229,60.619,13.286
2017-11-09T02:22:19,42.805,6.029,4330,1995,198.149,60.594,13.286
2017-11-09T02:25:19,42.805,6.029,4330,1995,198.216,60.615,13.286
2017-11-09T02:28:19,42.805,6.029,4330,1995,198.160,60.598,13.286
2017-11-09T02:31:19,42.805,6.029,4330,1995,198.121,60.586,13.286
2017-11-09T02:34:19,42.805,6.029,4330,1995,198.132,60.590,13.286
2017-11-09T02:37:19,42.805,6.029,4330,1995,198.151,60.595,13.286
2017-11-09T02:40:19,42.805,6.029,4330,1995,198.149,60.595,13.286
2017-11-09T02:43:19,42.805,6.029,4330,1995,198.106,60.582,13.286
2017-11-09T02:46:19,42.805,6.029,4330,1995,198.155,60.596,13.286
2017-11-09T02:49:19,42.805,6.029,4330,1995,198.097,60.579,13.287
2017-11-09T02:52:19,42.805,6.029,4330,1995,198.040,60.561,13.286
2017-11-09T02:55:19,42.805,6.029,4330,1995,198.042,60.562,13.287
2017-11-09T02:58:19,42.805,6.029,4330,1995,198.048,60.564,13.287
2017-11-09T03:01:19,42.805,6.029,4330,1995,198.011,60.552,13.287
2017-11-09T03:04:19,42.805,6.029,4330,1995,198.037,60.561,13.287
2017-11-09T03:07:19,42.805,6.029,4330,1995,198.035,60.560,13.287
2017-11-09T03:10:19,42.805,6.029,4330,1995,198.024,60.557,13.287
2017-11-09T03:13:19,42.805,6.029,4330,1995,198.017,60.555,13.287
2017-11-09T03:16:19,42.805,6.029,4330,1995,198.005,60.551,13.286
2017-11-09T03:19:19,42.805,6.029,4330,1995,198.033,60.559,13.287
2017-11-09T03:22:19,42.805,6.029,4330,1995,197.993,60.547,13.287
2017-11-09T03:25:19,42.805,6.029,4330,1995,198.043,60.562,13.287
2017-11-09T03:28:19,42.805,6.029,4330,1995,197.986,60.545,13.287
2017-11-09T03:31:19,42.805,6.029,4330,1995,197.986,60.545,13.287
2017-11-09T03:34:19,42.805,6.029,4330,1995,197.940,60.531,13.287
2017-11-09T03:37:19,42.805,6.029,4330,1995,197.919,60.525,13.287
2017-11-09T03:40:19,42.805,6.029,4330,1995,197.993,60.547,13.287
2017-11-09T03:43:19,42.805,6.029,4330,1995,197.948,60.534,13.287
2017-11-09T03:46:19,42.805,6.029,4330,1995,197.887,60.515,13.287
2017-11-09T03:49:19,42.805,6.029,4330,1995,197.886,60.514,13.287
2017-11-09T03:52:19,42.805,6.029,4330,1995,197.902,60.519,13.287
2017-11-09T03:55:19,42.805,6.029,4330,1995,197.884,60.514,13.287
2017-11-09T03:58:19,42.805,6.029,4330,1995,197.848,60.502,13.286
2017-11-09T04:01:19,42.805,6.029,4330,1995,197.897,60.518,13.287
2017-11-09T04:04:19,42.805,6.029,4330,1995,197.874,60.511,13.287
2017-11-09T04:07:19,42.805,6.029,4330,1995,197.776,60.481,13.287
2017-11-09T04:10:19,42.805,6.029,4330,1995,197.778,60.481,13.287
2017-11-09T04:13:19,42.805,6.029,4330,1995,197.701,60.458,13.287
2017-11-09T04:16:19,42.805,6.029,4330,1995,197.745,60.472,13.287
2017-11-09T04:19:19,42.805,6.029,4330,1995,197.765,60.477,13.287
2017-11-09T04:22:19,42.805,6.029,4330,1995,197.687,60.454,13.287
2017-11-09T04:25:19,42.805,6.029,4330,1995,197.666,60.448,13.287
2017-11-09T04:28:19,42.805,6.029,4330,1995,197.674,60.450,13.287
2017-11-09T04:31:19,42.805,6.029,4330,1995,197.600,60.428,13.287
2017-11-09T04:34:19,42.805,6.029,4330,1995,197.617,60.432,13.287
2017-11-09T04:37:19,42.805,6.029,4330,1995,197.604,60.428,13.287
2017-11-09T04:40:19,42.805,6.029,4330,1995,197.621,60.434,13.287
2017-11-09T04:43:19,42.805,6.029,4330,1995,197.577,60.420,13.287
2017-11-09T04:46:19,42.805,6.029,4330,1995,197.602,60.428,13.287
2017-11-09T04:49:19,42.805,6.029,4330,1995,197.643,60.440,13.287
2017-11-09T04:52:19,42.805,6.029,4330,1995,197.607,60.429,13.287
2017-11-09T04:55:19,42.805,6.029,4330,1995,197.541,60.409,13.287
2017-11-09T04:58:19,42.805,6.029,4330,1995,197.528,60.405,13.287
2017-11-09T05:01:19,42.805,6.029,4330,1995,197.429,60.376,13.288
2017-11-09T05:04:19,42.805,6.029,4330,1995,197.516,60.401,13.287
2017-11-09T05:07:19,42.805,6.029,4330,1995,197.511,60.400,13.287
2017-11-09T05:10:19,42.805,6.029,4330,1995,197.578,60.421,13.287
2017-11-09T05:13:19,42.805,6.029,4330,1995,197.455,60.383,13.287
2017-11-09T05:16:19,42.805,6.029,4330,1995,197.474,60.390,13.288
2017-11-09T05:19:19,42.805,6.029,4330,1995,197.425,60.375,13.287
2017-11-09T05:22:19,42.805,6.029,4330,1995,197.364,60.355,13.287
2017-11-09T05:25:19,42.805,6.029,4330,1995,197.481,60.391,13.287
2017-11-09T05:28:19,42.805,6.029,4330,1995,197.472,60.389,13.287
2017-11-09T05:31:19,42.805,6.029,4330,1995,197.443,60.380,13.287
2017-11-09T05:34:19,42.805,6.029,4330,1995,197.408,60.369,13.287
2017-11-09T05:37:19,42.805,6.029,4330,1995,197.368,60.357,13.287
2017-11-09T05:40:19,42.805,6.029,4330,1995,197.332,60.345,13.287
2017-11-09T05:43:19,42.805,6.029,4330,1995,197.411,60.370,13.287
2017-11-09T05:46:19,42.805,6.029,4330,1995,197.378,60.360,13.287
2017-11-09T05:49:19,42.805,6.029,4330,1995,197.322,60.343,13.287
2017-11-09T05:52:19,42.805,6.029,4330,1995,197.193,60.304,13.288
2017-11-09T05:55:19,42.805,6.029,4330,1995,197.201,60.306,13.287
2017-11-09T05:58:19,42.805,6.029,4330,1995,197.189,60.302,13.287
2017-11-09T06:01:19,42.805,6.029,4330,1995,197.113,60.279,13.287
2017-11-09T06:04:19,42.805,6.029,4330,1995,197.055,60.262,13.288
2017-11-09T06:07:19,42.805,6.029,4330,1995,197.105,60.277,13.287
2017-11-09T06:10:19,42.805,6.029,4330,1995,196.996,60.243,13.287
2017-11-09T06:13:19,42.805,6.029,4330,1995,197.053,60.260,13.287
2017-11-09T06:16:19,42.805,6.029,4330,1995,196.999,60.244,13.288
2017-11-09T06:19:19,42.805,6.029,4330,1995,197.069,60.266,13.288
2017-11-09T06:22:19,42.805,6.029,4330,1995,196.997,60.244,13.288
2017-11-09T06:25:19,42.805,6.029,4330,1995,196.914,60.218,13.287
2017-11-09T06:28:19,42.805,6.029,4330,1995,196.905,60.215,13.287
2017-11-09T06:31:19,42.805,6.029,4330,1995,196.834,60.194,13.288
2017-11-09T06:34:19,42.805,6.029,4330,1995,196.824,60.192,13.288
2017-11-09T06:37:19,42.805,6.029,4330,1995,196.746,60.169,13.289
2017-11-09T06:40:19,42.805,6.029,4330,1995,196.784,60.179,13.288
2017-11-09T06:43:19,42.805,6.029,4330,1995,196.711,60.157,13.288
2017-11-09T06:46:19,42.805,6.029,4330,1995,196.763,60.173,13.288
2017-11-09T06:49:19,42.805,6.029,4330,1995,196.779,60.177,13.288
2017-11-09T06:52:19,42.805,6.029,4330,1995,196.599,60.124,13.289
2017-11-09T06:55:19,42.805,6.029,4330,1995,196.439,60.074,13.288
2017-11-09T06:58:19,42.805,6.029,4330,1995,196.467,60.083,13.289
2017-11-09T07:01:19,42.805,6.029,4330,1995,196.431,60.073,13.289
2017-11-09T07:04:19,42.805,6.029,4330,1995,196.539,60.104,13.288
2017-11-09T07:07:19,42.805,6.029,4330,1995,196.706,60.156,13.288
2017-11-09T07:10:19,42.805,6.029,4330,1995,196.787,60.180,13.288
2017-11-09T07:13:19,42.805,6.029,4330,1995,196.636,60.134,13.288
2017-11-09T07:16:19,42.805,6.029,4330,1995,196.616,60.128,13.288
2017-11-09T07:19:19,42.805,6.029,4330,1995,196.784,60.179,13.288
2017-11-09T07:22:19,42.805,6.029,4330,1995,196.816,60.189,13.288
2017-11-09T07:25:19,42.805,6.029,4330,1995,196.858,60.201,13.287
2017-11-09T07:28:19,42.805,6.029,4330,1995,196.781,60.177,13.287
2017-11-09T07:31:19,42.805,6.029,4330,1995,196.715,60.157,13.287
2017-11-09T07:34:19,42.805,6.029,4330,1995,196.642,60.134,13.287
2017-11-09T07:37:19,42.805,6.029,4330,1995,196.331,60.039,13.287
2017-11-09T07:40:19,42.805,6.029,4330,1995,196.180,59.993,13.287
2017-11-09T07:43:19,42.805,6.029,4330,1995,196.105,59.970,13.287
2017-11-09T07:46:19,42.805,6.029,4330,1995,196.230,60.009,13.287
2017-11-09T07:49:19,42.805,6.029,4330,1995,196.229,60.008,13.287
2017-11-09T07:52:19,42.805,6.029,4330,1995,195.917,59.913,13.287
2017-11-09T07:55:19,42.805,6.029,4330,1995,196.012,59.942,13.287
2017-11-09T07:58:19,42.805,6.029,4330,1995,196.141,59.981,13.287
2017-11-09T08:01:19,42.805,6.029,4330,1995,196.207,60.001,13.287
2017-11-09T08:04:19,42.805,6.029,4330,1995,196.194,59.997,13.287
2017-11-09T08:07:19,42.805,6.029,4330,1995,196.394,60.058,13.287
2017-11-09T08:10:19,42.805,6.029,4330,1995,196.383,60.055,13.287
2017-11-09T08:13:19,42.805,6.029,4330,1995,196.294,60.028,13.287
2017-11-09T08:16:19,42.805,6.029,4330,1995,196.415,60.065,13.287
2017-11-09T08:19:19,42.805,6.029,4330,1995,196.397,60.059,13.287
2017-11-09T08:22:19,42.805,6.029,4330,1995,196.415,60.065,13.287
2017-11-09T08:25:19,42.805,6.029,4330,1995,196.398,60.060,13.287
2017-11-09T08:28:19,42.805,6.029,4330,1995,196.364,60.049,13.286
2017-11-09T08:31:19,42.805,6.029,4330,1995,196.376,60.052,13.286
2017-11-09T08:34:19,42.805,6.029,4330,1995,196.467,60.080,13.286
2017-11-09T08:37:19,42.805,6.029,4330,1995,196.516,60.095,13.286
2017-11-09T08:40:19,42.805,6.029,4330,1995,196.493,60.088,13.286
2017-11-09T08:43:19,42.805,6.029,4330,1995,196.395,60.058,13.286
2017-11-09T08:46:19,42.805,6.029,4330,1995,196.343,60.043,13.287
2017-11-09T08:49:19,42.805,6.029,4330,1995,196.376,60.052,13.286
2017-11-09T08:52:19,42.805,6.029,4330,1995,196.381,60.054,13.286
2017-11-09T08:55:19,42.805,6.029,4330,1995,196.318,60.035,13.286
2017-11-09T08:58:19,42.805,6.029,4330,1995,196.362,60.048,13.286
2017-11-09T09:01:19,42.805,6.029,4330,1995,196.465,60.079,13.286
2017-11-09T09:04:19,42.805,6.029,4330,1995,196.569,60.111,13.286
2017-11-09T09:07:19,42.805,6.029,4330,1995,196.638,60.132,13.286
2017-11-09T09:10:19,42.805,6.029,4330,1995,196.659,60.139,13.286
2017-11-09T09:13:19,42.805,6.029,4330,1995,196.758,60.169,13.286
2017-11-09T09:16:19,42.805,6.029,4330,1995,196.736,60.162,13.286
2017-11-09T09:19:19,42.805,6.029,4330,1995,196.831,60.191,13.286
2017-11-09T09:22:19,42.805,6.029,4330,1995,196.797,60.181,13.286
2017-11-09T09:25:19,42.805,6.029,4330,1995,196.756,60.168,13.286
2017-11-09T09:28:19,42.805,6.029,4330,1995,196.828,60.190,13.286
2017-11-09T09:31:19,42.805,6.029,4330,1995,196.801,60.182,13.286
2017-11-09T09:34:19,42.805,6.029,4330,1995,196.942,60.225,13.286
2017-11-09T09:37:19,42.805,6.029,4330,1995,196.926,60.220,13.286
2017-11-09T09:40:19,42.805,6.029,4330,1995,196.957,60.229,13.286
2017-11-09T09:43:19,42.805,6.029,4330,1995,197.022,60.249,13.286
2017-11-09T09:46:19,42.805,6.029,4330,1995,196.958,60.230,13.286
2017-11-09T09:49:19,42.805,6.029,4330,1995,196.957,60.229,13.286
2017-11-09T09:52:19,42.805,6.029,4330,1995,196.903,60.213,13.286
2017-11-09T09:55:19,42.805,6.029,4330,1995,196.827,60.190,13.286
2017-11-09T09:58:19,42.805,6.029,4330,1995,196.872,60.203,13.286
2017-11-09T10:01:19,42.805,6.029,4330,1995,196.947,60.226,13.286
2017-11-09T10:04:19,42.805,6.029,4330,1995,197.037,60.254,13.286
2017-11-09T10:07:19,42.805,6.029,4330,1995,197.011,60.246,13.286
2017-11-09T10:10:19,42.805,6.029,4330,1995,197.004,60.244,13.286
2017-11-09T10:13:19,42.805,6.029,4330,1995,197.044,60.256,13.286
2017-11-09T10:16:19,42.805,6.029,4330,1995,197.075,60.265,13.286
2017-11-09T10:19:19,42.805,6.029,4330,1995,197.102,60.274,13.286
2017-11-09T10:22:19,42.805,6.029,4330,1995,197.057,60.260,13.286
2017-11-09T10:25:19,42.805,6.029,4330,1995,197.081,60.267,13.286
2017-11-09T10:28:19,42.805,6.029,4330,1995,197.141,60.286,13.286
2017-11-09T10:31:19,42.805,6.029,4330,1995,197.116,60.278,13.286
2017-11-09T10:34:19,42.805,6.029,4330,1995,197.062,60.262,13.286
2017-11-09T10:37:19,42.805,6.029,4330,1995,197.116,60.278,13.286
2017-11-09T10:40:19,42.805,6.029,4330,1995,197.154,60.289,13.286
2017-11-09T10:43:19,42.805,6.029,4330,1995,197.233,60.314,13.286
2017-11-09T10:46:19,42.805,6.029,4330,1995,197.263,60.323,13.286
2017-11-09T10:49:19,42.805,6.029,4330,1995,197.237,60.315,13.286
2017-11-09T10:52:19,42.805,6.029,4330,1995,197.221,60.310,13.286
2017-11-09T10:55:19,42.805,6.029,4330,1995,197.316,60.339,13.286
2017-11-09T10:58:19,42.805,6.029,4330,1995,197.388,60.361,13.286
2017-11-09T11:01:19,42.805,6.029,4330,1995,197.431,60.374,13.286
2017-11-09T11:04:19,42.805,6.029,4330,1995,197.553,60.412,13.286
2017-11-09T11:07:19,42.805,6.029,4330,1995,197.632,60.435,13.286
2017-11-09T11:10:19,42.805,6.029,4330,1995,197.653,60.442,13.286
2017-11-09T11:13:19,42.805,6.029,4330,1995,197.709,60.459,13.286
2017-11-09T11:16:19,42.805,6.029,4330,1995,197.860,60.505,13.286
2017-11-09T11:19:19,42.805,6.029,4330,1995,197.810,60.490,13.286
2017-11-09T11:22:19,42.805,6.029,4330,1995,197.970,60.539,13.286
2017-11-09T11:25:19,42.805,6.029,4330,1995,197.974,60.540,13.286
2017-11-09T11:28:19,42.805,6.029,4330,1995,198.053,60.564,13.286
2017-11-09T11:31:19,42.805,6.029,4330,1995,198.122,60.585,13.286
2017-11-09T11:34:19,42.805,6.029,4330,1995,198.144,60.592,13.286
2017-11-09T11:37:19,42.805,6.029,4330,1995,198.154,60.595,13.286
2017-11-09T11:40:19,42.805,6.029,4330,1995,198.190,60.606,13.286
2017-11-09T11:43:19,42.805,6.029,4330,1995,198.232,60.619,13.286
2017-11-09T11:46:19,42.805,6.029,4330,1995,198.255,60.626,13.286
2017-11-09T11:49:19,42.805,6.029,4330,1995,198.271,60.631,13.286
2017-11-09T11:52:19,42.805,6.029,4330,1995,198.224,60.617,13.286
2017-11-09T11:55:19,42.805,6.029,4330,1995,198.116,60.584,13.286
2017-11-09T11:58:19,42.805,6.029,4330,1995,198.161,60.597,13.286
2017-11-09T12:01:19,42.805,6.029,4330,1995,198.175,60.602,13.286
2017-11-09T12:04:19,42.805,6.029,4330,1995,198.221,60.616,13.286
2017-11-09T12:07:19,42.805,6.029,4330,1995,198.089,60.575,13.286
2017-11-09T12:10:19,42.805,6.029,4330,1995,198.068,60.569,13.286
2017-11-09T12:13:19,42.805,6.029,4330,1995,198.128,60.587,13.286
2017-11-09T12:16:19,42.805,6.029,4330,1995,198.122,60.585,13.286
2017-11-09T12:19:19,42.805,6.029,4330,1995,198.091,60.576,13.286
2017-11-09T12:22:19,42.805,6.029,4330,1995,198.055,60.565,13.286
2017-11-09T12:25:19,42.805,6.029,4330,1995,198.046,60.562,13.286
2017-11-09T12:28:19,42.805,6.029,4330,1995,198.109,60.581,13.286
2017-11-09T12:31:19,42.805,6.029,4330,1995,198.048,60.563,13.286
2017-11-09T12:34:19,42.805,6.029,4330,1995,197.924,60.525,13.286
2017-11-09T12:37:19,42.805,6.029,4330,1995,197.914,60.522,13.286
2017-11-09T12:40:19,42.805,6.029,4330,1995,197.901,60.518,13.286
2017-11-09T12:43:19,42.805,6.029,4330,1995,197.945,60.531,13.286
2017-11-09T12:46:19,42.805,6.029,4330,1995,197.961,60.536,13.286
2017-11-09T12:49:19,42.805,6.029,4330,1995,197.937,60.529,13.286
2017-11-09T12:52:19,42.805,6.029,4330,1995,197.953,60.534,13.286
2017-11-09T12:55:19,42.805,6.029,4330,1995,197.866,60.507,13.286
2017-11-09T12:58:19,42.805,6.029,4330,1995,197.849,60.502,13.286
2017-11-09T13:01:19,42.805,6.029,4330,1995,197.917,60.523,13.286
2017-11-09T13:04:19,42.805,6.029,4330,1995,197.857,60.504,13.286
2017-11-09T13:07:19,42.805,6.029,4330,1995,197.882,60.512,13.286
2017-11-09T13:10:19,42.805,6.029,4330,1995,197.837,60.498,13.286
2017-11-09T13:13:19,42.805,6.029,4330,1995,197.955,60.534,13.286
2017-11-09T13:16:19,42.805,6.029,4330,1995,197.933,60.527,13.286
2017-11-09T13:19:19,42.805,6.029,4330,1995,197.943,60.530,13.286
2017-11-09T13:22:19,42.805,6.029,4330,1995,197.928,60.526,13.286
2017-11-09T13:25:19,42.805,6.029,4330,1995,197.955,60.534,13.286
2017-11-09T13:28:19,42.805,6.029,4330,1995,197.980,60.542,13.286
2017-11-09T13:31:19,42.805,6.029,4330,1995,198.023,60.555,13.286
2017-11-09T13:34:19,42.805,6.029,4330,1995,198.137,60.590,13.285
2017-11-09T13:37:19,42.805,6.029,4330,1995,198.090,60.575,13.285
2017-11-09T13:40:19,42.805,6.029,4330,1995,198.062,60.567,13.285
2017-11-09T13:43:19,42.805,6.029,4330,1995,198.229,60.618,13.285
2017-11-09T13:46:19,42.805,6.029,4330,1995,198.173,60.601,13.286
2017-11-09T13:49:19,42.805,6.029,4330,1995,198.239,60.621,13.286
2017-11-09T13:52:19,42.805,6.029,4330,1995,198.209,60.612,13.286
2017-11-09T13:55:19,42.805,6.029,4330,1995,198.321,60.646,13.285
2017-11-09T13:58:19,42.805,6.029,4330,1995,198.397,60.669,13.286
2017-11-09T14:01:19,42.805,6.029,4330,1995,198.435,60.681,13.286
2017-11-09T14:04:19,42.805,6.029,4330,1995,198.523,60.708,13.286
2017-11-09T14:07:19,42.805,6.029,4330,1995,198.480,60.695,13.286
2017-11-09T14:10:19,42.805,6.029,4330,1995,198.563,60.720,13.286
2017-11-09T14:13:19,42.805,6.029,4330,1995,198.579,60.725,13.286
2017-11-09T14:16:19,42.805,6.029,4330,1995,198.635,60.742,13.285
2017-11-09T14:19:19,42.805,6.029,4330,1995,198.745,60.776,13.285
2017-11-09T14:22:19,42.805,6.029,4330,1995,198.718,60.767,13.286
2017-11-09T14:25:19,42.805,6.029,4330,1995,198.681,60.756,13.286
2017-11-09T14:28:19,42.805,6.029,4330,1995,198.702,60.763,13.286
2017-11-09T14:31:19,42.805,6.029,4330,1995,198.691,60.759,13.286
2017-11-09T14:34:19,42.805,6.029,4330,1995,198.705,60.763,13.285
2017-11-09T14:37:19,42.805,6.029,4330,1995,198.713,60.766,13.286
2017-11-09T14:40:19,42.805,6.029,4330,1995,198.717,60.767,13.285
2017-11-09T14:43:19,42.805,6.029,4330,1995,198.750,60.777,13.285
2017-11-09T14:46:19,42.805,6.029,4330,1995,198.727,60.770,13.286
2017-11-09T14:49:19,42.805,6.029,4330,1995,198.666,60.751,13.286
2017-11-09T14:52:19,42.805,6.029,4330,1995,198.666,60.751,13.286
2017-11-09T14:55:19,42.805,6.029,4330,1995,198.667,60.752,13.286
2017-11-09T14:58:19,42.805,6.029,4330,1995,198.706,60.764,13.286
2017-11-09T15:01:19,42.805,6.029,4330,1995,198.698,60.761,13.286
2017-11-09T15:04:19,42.805,6.029,4330,1995,198.647,60.746,13.286
2017-11-09T15:07:19,42.805,6.029,4330,1995,198.652,60.747,13.286
2017-11-09T15:10:19,42.805,6.029,4330,1995,198.610,60.735,13.286
2017-11-09T15:13:19,42.805,6.029,4330,1995,198.681,60.756,13.285
2017-11-09T15:16:19,42.805,6.029,4330,1995,198.684,60.757,13.286
2017-11-09T15:19:19,42.805,6.029,4330,1995,198.596,60.730,13.286
2017-11-09T15:22:19,42.805,6.029,4330,1995,198.631,60.741,13.286
2017-11-09T15:25:19,42.805,6.029,4330,1995,198.609,60.734,13.286
2017-11-09T15:28:19,42.805,6.029,4330,1995,198.612,60.735,13.286
2017-11-09T15:31:19,42.805,6.029,4330,1995,198.612,60.735,13.286
2017-11-09T15:34:19,42.805,6.029,4330,1995,198.634,60.742,13.286
2017-11-09T15:37:19,42.805,6.029,4330,1995,198.648,60.746,13.286
2017-11-09T15:40:19,42.805,6.029,4330,1995,198.657,60.749,13.286
2017-11-09T15:43:19,42.805,6.029,4330,1995,198.540,60.713,13.286
2017-11-09T15:46:19,42.805,6.029,4330,1995,198.531,60.710,13.286
2017-11-09T15:49:19,42.805,6.029,4330,1995,198.530,60.710,13.286
2017-11-09T15:52:19,42.805,6.029,4330,1995,198.580,60.725,13.286
2017-11-09T15:55:19,42.805,6.029,4330,1995,198.506,60.703,13.286
2017-11-09T15:58:19,42.805,6.029,4330,1995,198.638,60.743,13.286
2017-11-09T16:01:19,42.805,6.029,4330,1995,198.553,60.717,13.286
2017-11-09T16:04:19,42.805,6.029,4330,1995,198.471,60.692,13.286
2017-11-09T16:07:19,42.805,6.029,4330,1995,198.557,60.718,13.286
2017-11-09T16:10:19,42.805,6.029,4330,1995,198.507,60.703,13.286
2017-11-09T16:13:19,42.805,6.029,4330,1995,198.523,60.708,13.286
2017-11-09T16:16:19,42.805,6.029,4330,1995,198.591,60.729,13.286
2017-11-09T16:19:19,42.805,6.029,4330,1995,198.520,60.707,13.286
2017-11-09T16:22:19,42.805,6.029,4330,1995,198.576,60.724,13.286
2017-11-09T16:25:19,42.805,6.029,4330,1995,198.479,60.695,13.286
2017-11-09T16:28:19,42.805,6.029,4330,1995,198.542,60.714,13.286
2017-11-09T16:31:19,42.805,6.029,4330,1995,198.449,60.685,13.286
2017-11-09T16:34:19,42.805,6.029,4330,1995,198.546,60.715,13.286
2017-11-09T16:37:19,42.805,6.029,4330,1995,198.509,60.703,13.286
2017-11-09T16:40:19,42.805,6.029,4330,1995,198.600,60.731,13.286
2017-11-09T16:43:19,42.805,6.029,4330,1995,198.591,60.729,13.286
2017-11-09T16:46:19,42.805,6.029,4330,1995,198.571,60.723,13.286
2017-11-09T16:49:19,42.805,6.029,4330,1995,198.538,60.713,13.286
2017-11-09T16:52:19,42.805,6.029,4330,1995,198.524,60.708,13.286
2017-11-09T16:55:19,42.805,6.029,4330,1995,198.611,60.735,13.285
2017-11-09T16:58:19,42.805,6.029,4330,1995,198.594,60.730,13.286
2017-11-09T17:01:19,42.805,6.029,4330,1995,198.578,60.725,13.285
2017-11-09T17:04:19,42.805,6.029,4330,1995,198.605,60.733,13.286
2017-11-09T17:07:19,42.805,6.029,4330,1995,198.602,60.732,13.286
2017-11-09T17:10:19,42.805,6.029,4330,1995,198.538,60.713,13.286
2017-11-09T17:13:19,42.805,6.029,4330,1995,198.520,60.707,13.286
2017-11-09T17:16:19,42.805,6.029,4330,1995,198.524,60.708,13.286
2017-11-09T17:19:19,42.805,6.029,4330,1995,198.515,60.705,13.286
2017-11-09T17:22:19,42.805,6.029,4330,1995,198.549,60.716,13.286
2017-11-09T17:25:19,42.805,6.029,4330,1995,198.440,60.683,13.286
2017-11-09T17:28:19,42.805,6.029,4330,1995,198.447,60.685,13.286
2017-11-09T17:31:19,42.805,6.029,4330,1995,198.433,60.680,13.286
2017-11-09T17:34:19,42.805,6.029,4330,1995,198.560,60.719,13.286
2017-11-09T17:37:19,42.805,6.029,4330,1995,198.507,60.703,13.286
2017-11-09T17:40:19,42.805,6.029,4330,1995,198.494,60.699,13.286
2017-11-09T17:43:19,42.805,6.029,4330,1995,198.504,60.702,13.286
2017-11-09T17:46:19,42.805,6.029,4330,1995,198.478,60.694,13.286
2017-11-09T17:49:19,42.805,6.029,4330,1995,198.508,60.703,13.286
2017-11-09T17:52:19,42.805,6.029,4330,1995,198.544,60.714,13.285
2017-11-09T17:55:19,42.805,6.029,4330,1995,198.510,60.704,13.286
2017-11-09T17:58:19,42.805,6.029,4330,1995,198.521,60.707,13.286
2017-11-09T18:01:18,42.805,6.029,4330,1995,198.489,60.697,13.286
2017-11-09T18:04:18,42.805,6.029,4330,1995,198.488,60.697,13.286
2017-11-09T18:07:18,42.805,6.029,4330,1995,198.531,60.710,13.286